Regional Weather Roundup
Issued by NWS

Home | Current Version | Previous Version | Graphics & Text | Print | Product List | Glossary On
Versions: 1 2 3 4 5 6 7 8 9 10 11 12 13 14 15 16 17 18 19 20 21 22 23 24 25 26 27 28
000
ASUS45 KSLC 231110
RWRUT

UTAH REGIONAL WEATHER ROUNDUP
NATIONAL WEATHER SERVICE SALT LAKE CITY UT
500 AM MDT THU MAR 23 2017

UTZ001>011-023>025-231200-

NORTHERN UTAH

CITY           SKY/WX    TMP DP  RH WIND       PRES   REMARKS
BRIGHAM CITY     N/A     46  38  75 SW9       29.71S
HILL AFB       LGT RAIN  43  42  95 W8        29.71R FOG
LOGAN          CLOUDY    45  41  86 NW5       29.72S
OGDEN          RAIN      43  42  97 W3        29.71R FOG
SALT LAKE CITY RAIN      43  38  82 S7        29.73R FOG
WENDOVER       CLOUDY    45  30  57 NW18G24   29.78S
HEBER CITY     MIX PCPN  39  36  87 W6        29.70F WCI  35

$$

UTZ011>015-024>027-231200-

CENTRAL/NORTHEAST UTAH

CITY           SKY/WX    TMP DP  RH WIND       PRES   REMARKS
PROVO AIRPORT  LGT RAIN  44  40  85 S16       29.74F
MOAB/CANYONLAN CLOUDY    49  43  80 S3        29.72S
DELTA          CLOUDY    39  37  93 CALM      29.77F
PRICE          LGT RAIN  41  38  89 E6        29.70F
ROOSEVELT      MIX PCPN  43  39  87 W7        29.75F
VERNAL         LGT RAIN  42  40  92 CALM      29.73F

$$

UTZ013>016-019>022-027-231200-

SOUTHERN UTAH

CITY           SKY/WX    TMP DP  RH WIND       PRES   REMARKS
BRYCE CANYON   CLOUDY    31  29  92 SE3       29.79F FOG
CEDAR CITY     PTCLDY    35  32  88 SW5       29.78S WCI  31
MILFORD        CLOUDY   N/A N/A N/A W9        29.77F
ST GEORGE      CLOUDY    47  37  68 SE7       29.78F
HANKSVILLE     CLOUDY    46  37  71 CALM      29.76R
BLANDING       MOCLDY    41  34  75 CALM      29.89R

$$

REGIONAL REPORTS     COLORADO/ARIZONA

CITY           SKY/WX    TMP DP  RH WIND       PRES   REMARKS
CRAIG, CO      CLOUDY    41  31  67 CALM      29.73F
GRAND JUNCTION CLEAR     49  41  74 N14       29.73S
RIFLE, CO      CLEAR     57  22  25 S16G28    29.74F
MONTROSE, CO   CLEAR     54  24  31 S16G22    29.79F
CORTEZ, CO     CLEAR     43  34  70 S10       29.84F
COLORADO CITY    N/A     37  37 100 E5        29.84S WCI  34
PAGE, AZ       LGT RAIN  46  32  58 N5        29.79F
GRAND CANYON   LGT SNOW  33  33 100 SW5       29.87R FOG     WCI  29
KINGMAN, AZ    CLEAR     42  29  59 S3        29.83S
FLAGSTAFF, AZ  LGT SNOW  31  31 100 S6        29.87F VSB 3/4 WCI  25

$$

REGIONAL REPORTS    NEVADA/IDAHO/WYOMING

CITY           SKY/WX    TMP DP  RH WIND       PRES   REMARKS
LAS VEGAS, NV  MOCLDY    53  28  38 CALM      29.77S
ELY, NY        LGT SNOW  32  32 100 N8        29.82S FOG     WCI  25
ELKO, NV       CLOUDY    36  34  92 SW8       29.87S WCI  30
POCATELLO, ID  CLOUDY    39  35  86 SW8       29.79S WCI  33
BURLEY, ID     CLOUDY    40  35  83 W13G21    29.81R WCI  32
FORT BRIDGER,  DRIZZLE   38  38 100 E5        29.72  WCI  35
EVANSTON, WY   LGT RAIN  35  32  88 N7        29.71S VSB 1/4 WCI  29
ROCK SPRINGS,  LGT RAIN  37  34  89 S7        29.74F WCI  32
KEMMERER, WY   MIX PCPN  32  32 100 N7        29.72F WCI  26

$$




USA.gov is the U.S. government's official web portal to all federal, state and local government web resources and services.